Regional Weather Roundup
Issued by NWS

Home | Current Version | Previous Version | Graphics & Text | Print | Product List | Glossary Off
Versions: 1 2 3 4 5 6 7 8 9 10 11 12 13 14 15 16 17 18 19 20 21 22 23 24 25 26 27 28 29 30 31 32 33 34 35 36 37 38 39 40 41 42 43 44 45 46 47 48 49 50

000
ASUS43 KDMX 230401
RWRIA

WEATHER ROUNDUP FOR IOWA
NATIONAL WEATHER SERVICE DES MOINES IA
1100 PM CDT FRI SEP 22 2017

NOTE: "FAIR" INDICATES FEW OR NO CLOUDS BELOW 12,000 FEET WITH NO
SIGNIFICANT WEATHER AND/OR OBSTRUCTIONS TO VISIBILITY.

* - THESE STATIONS ARE NOT NWS STATIONS...THUS NOT UNDER NWS
QUALITY CONTROL.  THEY ALSO DO NOT REPORT WEATHER SUCH
AS PRECIPITATION OR FOG.

IAZ001>003-012>014-020>022-031>034-043>046-230500-
   NORTHWEST IOWA

CITY           SKY/WX    TMP DP  RH WIND       PRES   REMARKS
CARROLL *      CLEAR     73  68  83 S9        29.91S
CHEROKEE *     CLOUDY    78  68  70 S13G20    29.86R HX  80
DENISON *      CLEAR     77  68  73 S15G23    29.91S
LE MARS *      CLOUDY    82  68  61 S20G32    29.82R HX  85
ORANGE CITY *  PTCLDY    81  70  69 S14G21    29.84R HX  84
SHELDON *      PTCLDY    79  68  69 S16G28    29.82R HX  81
SIOUX CITY     CLOUDY    81  69  67 S15       29.83R HX  84
SPENCER        PTCLDY    79  68  69 S18G28    29.86R HX  81
STORM LAKE *   PTCLDY    75  68  78 S12G18    29.89S
$$

IAZ055>058-069>071-079>083-090>094-230500-
   SOUTHWEST IOWA

CITY           SKY/WX    TMP DP  RH WIND       PRES   REMARKS
ATLANTIC *     CLEAR     77  68  73 S8        29.93R
AUDUBON *      CLEAR     75  70  83 S7        29.94R
CLARINDA *     CLEAR     77  70  78 S8        29.95S
COUNCIL BLFS * CLEAR     77  72  83 S16       29.90R
CRESTON *      CLEAR     73  68  83 S8        29.97S
HARLAN  *      CLEAR     77  70  78 S13       29.95R
LAMONI         CLEAR     75  68  78 S5        29.97R
RED OAK *      CLEAR     77  68  73 S9        29.93R
SHENANDOAH *   CLEAR     77  70  78 SE8       29.93R
$$

IAZ047>049-059>061-072>074-084-230500-
   CENTRAL IOWA

CITY           SKY/WX    TMP DP  RH WIND       PRES   REMARKS
AMES           CLEAR     73  69  87 SE7       29.94S
ANKENY *       PTCLDY    77  68  73 S7        29.95S
BOONE *        CLEAR     73  68  83 S6        29.94R
CHARITON *     PTCLDY    73  68  83 S7        29.97R
DES MOINES     PTCLDY    77  67  71 SE8       29.94R
GRINNELL*      CLEAR     73  66  78 S3        29.98S
KNOXVILLE *    CLOUDY    75  66  73 SE7       29.95S
MARSHALLTOWN   PTCLDY    75  68  78 SE9       29.95S
NEWTON *       CLEAR     72  66  83 SE7       29.97S
PELLA *        CLEAR     76  66  71 SE3       29.98S
PERRY *          N/A     75  67  77 SE7       29.93R
$$

IAZ004>006-015-016-023>025-035-036-230500-
   NORTH CENTRAL IOWA

CITY           SKY/WX    TMP DP  RH WIND       PRES   REMARKS
ALGONA *       MOCLDY    79  68  69 S16       29.90R HX  81
CLARION *      PTCLDY    79  70  73 S13G20    29.92S HX  81
ESTHERVILLE    CLOUDY    77  68  73 S18G28    29.86R
FORT DODGE *   PTCLDY    80  67  64 S14G20    29.92R HX  82
MASON CITY     CLEAR     75  67  76 S10       29.94R
FOREST CITY *    N/A     77  68  73 S10       29.92R
WEBSTER CITY * PTCLDY    77  68  73 S9G16     29.91R
IOWA FALLS *     N/A     75  68  77 SE10      29.95S
$$

IAZ007>011-017>019-026>030-037>042-050>054-066-230500-
   NORTHEAST IOWA

CITY           SKY/WX    TMP DP  RH WIND       PRES   REMARKS
CEDAR RAPIDS   CLEAR     74  66  76 S6        29.97F
CHARLES CITY * CLEAR     77  66  69 S10G16    29.95S
CLINTON *      CLEAR    N/A N/A N/A SE6       30.01S
DECORAH *      CLEAR     75  66  73 S6        29.96S
DUBUQUE        CLEAR     71  65  81 SW3       30.02R
MONTICELLO *   CLEAR     72  66  83 CALM      29.99S
OELWEIN *      CLEAR     73  68  83 S7        29.98S
WATERLOO       CLEAR     76  66  71 S8        29.95S
$$

IAZ064-065-067-068-078-230500-
   EAST CENTRAL IOWA

CITY           SKY/WX    TMP DP  RH WIND       PRES   REMARKS
DAVENPORT      CLEAR     73  65  75 S7        30.02S
IOWA CITY      CLEAR     74  66  76 SE3       29.99S
MUSCATINE *    CLEAR     72  68  88 CALM      29.99S
QUAD CITIES    CLEAR     73  65  75 SE5       29.99S
$$

IAZ062-063-075>077-085>089-095>099-230500-
   SOUTHEAST IOWA

CITY           SKY/WX    TMP DP  RH WIND       PRES   REMARKS
BURLINGTON     CLEAR     73  65  75 SE3       29.99F
FAIRFIELD *    CLEAR     73  64  73 SE7       29.98S
FORT MADISON * CLEAR     79  63  57 S6        30.00F HX  80
KEOKUK *       CLEAR     77  63  61 SE5       29.99S
OSKALOOSA *      N/A     71  66  84 CALM      29.98S
OTTUMWA        CLEAR     76  65  68 S7        29.97F
WASHINGTON *   CLEAR     72  66  83 S6        30.00S
$$

ABBREVIATIONS USED IN REMARKS
   TC - TEMPERATURES IN CELSIUS
  WCI - WIND CHILL INDEX
   HX - HEAT INDEX
  VSB - VISIBILITY
$$




USA.gov is the U.S. government's official web portal to all federal, state and local government web resources and services.